Location: Ammerl�gen
(47.2167°N, 9.6000°E)
Time: 05:43:46
(UTC+00:00)

Iridium 4 Rocket - Visible Passes

Search period start: 29 July 2021 00:00
Search period end: 08 August 2021 00:00
Orbit: 585 x 904 km, 86.9° (Epoch: 28 July)

Date Brightness Start Highest point End Pass type
(mag) Time Alt. Az. Time Alt. Az. Time Alt. Az.
29 Jul 3.7 01:32:55 10° N 01:38:33 81° W 01:42:12 24° S visible
29 Jul 5.6 03:15:03 10° NW 03:17:41 13° WNW 03:20:21 10° W visible
30 Jul 4.4 00:49:42 10° N 00:55:13 52° E 00:58:43 23° SSE visible
30 Jul 4.9 02:30:14 10° NNW 02:34:54 27° W 02:38:28 15° SW visible
31 Jul 5.4 00:06:55 10° NNE 00:11:41 27° ENE 00:15:14 15° ESE visible
31 Jul 4.0 01:46:23 10° NNW 01:51:54 53° W 01:55:00 26° SSW visible
31 Jul 6.1 23:25:01 10° NE 23:27:52 14° ENE 23:30:46 10° E visible
01 Aug 3.8 01:02:56 10° N 01:08:42 80° E 01:11:32 32° S visible
01 Aug 5.4 02:44:18 10° NW 02:48:00 18° WNW 02:51:18 11° WSW visible
02 Aug 4.8 00:19:52 10° N 00:25:17 41° E 00:28:06 25° SE visible
02 Aug 4.6 02:00:01 10° NNW 02:05:09 34° W 02:07:51 23° SW visible
02 Aug 5.7 23:37:17 10° NNE 23:41:39 21° ENE 23:44:40 15° ESE visible
03 Aug 3.8 01:16:21 10° N 01:22:06 68° W 01:24:25 37° SSW visible
03 Aug 5.8 02:59:18 10° NW 03:01:00 11° WNW 03:02:43 10° W visible
03 Aug 6.3 22:56:26 10° NE 22:57:44 11° ENE 22:59:02 10° ENE visible
04 Aug 4.1 00:33:03 10° N 00:38:49 63° E 00:40:59 39° SSE visible
04 Aug 5.2 02:13:53 10° NNW 02:18:18 23° WNW 02:20:45 18° WSW visible
04 Aug 5.1 23:50:07 10° NNE 23:55:19 32° ENE 23:57:34 25° ESE visible
05 Aug 4.3 01:29:54 10° NNW 01:35:24 44° W 01:37:20 33° SW visible
05 Aug 5.9 23:07:50 10° NNE 23:11:34 17° ENE 23:14:10 13° E visible
06 Aug 3.7 00:46:23 10° N 00:52:16 86° W 00:53:56 50° S visible
06 Aug 5.6 02:28:13 10° NW 02:31:21 15° WNW 02:33:41 12° W visible
07 Aug 4.4 00:03:13 10° N 00:08:55 49° E 00:10:32 39° SE visible
07 Aug 4.9 01:43:38 10° NNW 01:48:36 29° W 01:50:17 25° WSW visible
07 Aug 5.3 23:20:28 10° NNE 23:25:19 26° ENE 23:27:08 22° ESE visible
